Location: La Comballaz
(46.3780°N, 7.0817°E)
Time: 16:16:33
(UTC+00:00)

Envisat - Pass Details

Date: 10 December 2021
Orbit: 764 x 766 km, 98.2° (Epoch: 16 January)

Event Time Altitude Azimuth Distance (km) Brightness Sun altitude
Rises 03:28:45 0° 26° (NNE) 3,243 6.6 -36.1°
Reaches altitude 10° 03:31:35 10° 42° (NE) 2,311 5.9 -35.6°
Maximum altitude 03:35:28 22° 92° (E) 1,642 5.3 -34.9°
Drops below altitude 10° 03:39:20 10° 142° (SE) 2,296 5.8 -34.3°
Sets 03:42:08 0° 157° (SSE) 3,217 6.5 -33.8°
